Time,TemperatureF,DewpointF,PressureIn,WindDirection,WindDirectionDegrees,WindSpeedMPH,WindSpeedGustMPH,Humidity,HourlyPrecipIn,Conditions,Clouds,dailyrainin,SoftwareType,DateUTC
2013-05-14 00:31:00,46.0,33.0,30.21,WNW,303,0.0,0.0,61,0.00,,,0.00,,2013-05-14 04:31:00,
2013-05-14 00:53:00,46.0,33.0,30.21,WNW,303,0.0,0.0,61,0.00,,,0.00,,2013-05-14 04:53:00,
2013-05-14 01:02:00,46.0,33.0,30.21,WNW,303,0.0,0.0,61,0.00,,,0.00,,2013-05-14 05:02:00,
2013-05-14 01:12:00,46.0,33.0,30.21,WNW,303,0.0,0.0,61,0.00,,,0.00,,2013-05-14 05:12:00,
2013-05-14 01:22:00,46.0,33.0,30.21,WNW,303,0.0,0.0,61,0.00,,,0.00,,2013-05-14 05:22:00,
2013-05-14 03:22:00,43.0,39.0,30.18,WNW,303,0.0,4.0,85,0.00,,,0.00,,2013-05-14 07:22:00,
2013-05-14 03:32:00,43.0,39.0,30.18,WNW,303,0.0,4.0,85,0.00,,,0.00,,2013-05-14 07:32:00,
2013-05-14 03:42:00,41.0,34.0,30.18,WNW,303,0.0,5.0,75,0.00,,,0.00,,2013-05-14 07:42:00,
2013-05-14 03:52:00,41.0,34.0,30.18,WNW,303,0.0,5.0,75,0.00,,,0.00,,2013-05-14 07:52:00,
2013-05-14 04:01:00,41.0,37.0,30.18,WNW,303,0.0,0.0,84,0.00,,,0.00,,2013-05-14 08:01:00,
2013-05-14 04:02:00,41.0,34.0,30.18,WNW,303,0.0,5.0,75,0.00,,,0.00,,2013-05-14 08:02:00,
2013-05-14 04:11:00,41.0,34.0,30.18,WNW,303,0.0,5.0,75,0.00,,,0.00,,2013-05-14 08:11:00,
2013-05-14 04:21:00,41.0,37.0,30.18,WNW,303,0.0,0.0,84,0.00,,,0.00,,2013-05-14 08:21:00,
2013-05-14 04:32:00,41.0,37.0,30.18,WNW,303,0.0,0.0,84,0.00,,,0.00,,2013-05-14 08:32:00,
2013-05-14 04:42:00,41.0,37.0,30.18,WNW,303,0.0,0.0,84,0.00,,,0.00,,2013-05-14 08:42:00,
2013-05-14 04:52:00,41.0,37.0,30.18,WNW,303,0.0,0.0,84,0.00,,,0.00,,2013-05-14 08:52:00,
2013-05-14 11:22:00,89.0,46.0,30.21,South,187,4.0,6.0,23,0.00,,,0.00,,2013-05-14 15:22:00,
2013-05-14 12:23:00,92.0,48.0,30.21,South,189,5.0,10.0,22,0.00,,,0.00,,2013-05-14 16:23:00,
2013-05-14 12:54:00,79.0,42.0,30.21,SE,142,5.0,8.0,27,0.00,,,0.00,,2013-05-14 16:54:00,
2013-05-14 13:24:00,79.0,42.0,30.18,South,187,5.0,12.0,27,0.00,,,0.00,,2013-05-14 17:24:00,
2013-05-14 14:22:00,82.0,45.0,30.15,SSW,205,10.0,15.0,27,0.00,,,0.00,,2013-05-14 18:22:00,
2013-05-14 14:52:00,83.0,46.0,30.12,SSW,193,7.0,15.0,27,0.00,,,0.00,,2013-05-14 18:52:00,
2013-05-14 16:23:00,98.0,51.0,30.09,South,185,8.0,15.0,21,0.00,,,0.00,,2013-05-14 20:23:00,
2013-05-14 17:23:00,95.0,49.0,30.06,South,187,11.0,16.0,21,0.00,,,0.00,,2013-05-14 21:23:00,
2013-05-14 17:53:00,93.0,48.0,30.06,South,179,7.0,17.0,22,0.00,,,0.00,,2013-05-14 21:53:00,
2013-05-14 18:24:00,92.0,48.0,30.06,South,179,6.0,16.0,22,0.00,,,0.00,,2013-05-14 22:24:00,
2013-05-14 19:22:00,82.0,45.0,30.06,South,174,7.0,16.0,27,0.00,,,0.00,,2013-05-14 23:22:00,
2013-05-14 19:32:00,82.0,45.0,30.06,South,174,7.0,16.0,27,0.00,,,0.00,,2013-05-14 23:32:00,
2013-05-14 19:44:00,82.0,45.0,30.06,South,174,7.0,16.0,27,0.00,,,0.00,,2013-05-14 23:44:00,
2013-05-14 19:53:00,82.0,45.0,30.06,South,174,7.0,16.0,27,0.00,,,0.00,,2013-05-14 23:53:00,
2013-05-14 20:01:00,79.0,50.0,30.03,South,180,5.0,11.0,36,0.00,,,0.00,,2013-05-15 00:01:00,
2013-05-14 20:21:00,79.0,50.0,30.03,South,180,5.0,11.0,36,0.00,,,0.00,,2013-05-15 00:21:00,
2013-05-14 20:32:00,79.0,50.0,30.03,South,180,5.0,11.0,36,0.00,,,0.00,,2013-05-15 00:32:00,
2013-05-14 20:42:00,79.0,50.0,30.03,South,180,5.0,11.0,36,0.00,,,0.00,,2013-05-15 00:42:00,
2013-05-14 20:52:00,79.0,50.0,30.03,South,180,5.0,11.0,36,0.00,,,0.00,,2013-05-15 00:52:00,
2013-05-14 22:31:00,76.0,49.0,30.03,SSE,165,10.0,17.0,38,0.00,,,0.00,,2013-05-15 02:31:00,
2013-05-14 22:52:00,76.0,49.0,30.03,SSE,165,10.0,17.0,38,0.00,,,0.00,,2013-05-15 02:52:00,
2013-05-14 23:01:00,76.0,49.0,30.03,SSE,165,10.0,17.0,38,0.00,,,0.00,,2013-05-15 03:01:00,
2013-05-14 23:13:00,76.0,49.0,30.03,SSE,165,10.0,17.0,38,0.00,,,0.00,,2013-05-15 03:13:00,
2013-05-14 23:22:00,76.0,49.0,30.03,SSE,165,10.0,17.0,38,0.00,,,0.00,,2013-05-15 03:22:00,